This demonstration page uses our WeatherBlox Daily Observations layout. Learn more.

Left ArrowRight Arrow

Hourly Observations for May 4, 2022

Temp ( °F °C ) Dew Point ( °F °C ) Humidity (%) Winds ( mph kmh ) Pressure ( in mb ) Visibility ( mi km ) Precip ( " mm )
12:56 am 00:56 Cloudy 49 9.3 40 4.7 73 73 E 5 7 30.17 1022 10 16 0.00 0.00
1:56 am 01:56 Cloudy 49 9.2 42 5.4 77 77 ESE 5 7 30.18 1022 10 16 0.00 0.00
2:56 am 02:56 Cloudy 48 9.1 42 5.3 77 77 E 2 4 30.18 1022 10 16 0.00 0.00
3:56 am 03:56 Cloudy 48 9 42 5.4 78 78 ESE 5 7 30.18 1022 10 16 0.00 0.00
4:56 am 04:56 Cloudy 48 9.1 40 4.7 74 74 SE 6 9 30.18 1022 10 16 0.00 0.00
5:56 am 05:56 Cloudy 48 9 41 5 76 76 SSE 3 6 30.19 1022 10 16 0.00 0.00
6:56 am 06:56 Cloudy 48 9 41 5.2 77 77 Calm 30.19 1022 10 16 0.00 0.00
7:56 am 07:56 Cloudy 48 8.8 42 5.7 81 81 Calm 30.20 1023 10 16 0.00 0.00
8:56 am 08:56 Cloudy 48 9.1 42 5.7 79 79 ENE 8 13 30.18 1022 10 16 0.00 0.00
9:56 am 09:56 Cloudy 49 9.6 42 5.8 77 77 E 7 11 30.18 1022 10 16 0.00 0.00
10:56 am 10:56 Cloudy 50 10.1 42 5.7 74 74 ESE 8 13 30.16 1021 10 16 0.00 0.00
11:56 am 11:56 Cloudy 51 10.4 42 5.8 73 73 E 8 13 30.15 1021 10 16 0.00 0.00
12:56 pm 12:56 Cloudy 51 10.3 42 5.7 73 73 SE 9 15 30.19 1022 10 16 0.00 0.00
1:56 pm 13:56 Cloudy 51 10.6 43 6.2 74 74 SE 8 13 30.19 1022 10 16 0.00 0.00
2:56 pm 14:56 Cloudy 52 10.9 44 6.4 74 74 E 8 13 30.15 1021 10 16 0.00 0.00
3:56 pm 15:56 Cloudy 52 10.9 45 7 77 77 E 5 7 30.16 1021 10 16 0.00 0.00
4:56 pm 16:56 Mostly Cloudy 52 11 45 7.1 77 77 E 5 7 30.11 1020 10 16 0.00 0.00
5:56 pm 17:56 Cloudy 52 11.2 44 6.7 74 74 ESE 6 9 30.12 1020 10 16 0.00 0.00
6:56 pm 18:56 Cloudy 52 11.3 45 7 75 75 E 5 7 30.13 1020 10 16 0.00 0.00
7:56 pm 19:56 Cloudy 52 11.1 45 7.2 77 77 ENE 6 9 30.11 1020 10 16 0.00 0.00
8:56 pm 20:56 Mostly Cloudy 52 11.2 45 7.1 76 76 ENE 5 7 30.10 1019 10 16 0.00 0.00
9:56 pm 21:56 Mostly Cloudy 52 11.3 45 7.2 76 76 NE 6 9 30.10 1019 10 16 0.00 0.00
10:56 pm 22:56 Mostly Cloudy 52 11.1 46 7.6 79 79 NE 5 7 30.10 1019 10 16 0.00 0.00
11:46 pm 23:46 Cloudy with Light Rain 52 11 46 8 82 82 ENE 7 11 30.06 1018 10 16 0.00 0.00
11:56 pm 23:56 Mostly Cloudy with Light Rain 52 10.9 46 7.8 81 81 ENE 9 15 30.05 1018 10 16 0.00 0.00

Powered by AerisWeather